JH0KSP-13 Weather Reports


Display with metric or nautical units.
time (UTC)temp
F
wind
direction
speed
MPH
gust
MPH
rain 1hr
in
rain 24hr
in
rain mn
in
humidity
%
barometer
mb
20260509145009 50 120 0.0 0.0 0.00 0.06 0.00 62 1018.5
20260509144657 50 120 0.0 0.0 0.00 0.06 0.00 61 1018.5
20260509143009 50 356 0.0 5.0 0.00 0.06 0.00 52 1018.2
20260509142656 50 356 0.0 6.0 0.00 0.06 0.00 51 1018.2
20260509140656 52 350 4.0 11.0 0.00 0.06 0.00 50 1018.1
20260509134656 52 297 7.0 10.0 0.00 0.06 0.00 48 1018.3
20260509132655 52 11 0.0 6.0 0.00 0.06 0.00 50 1018.2
20260509130657 54 93 0.0 0.0 0.00 0.06 0.00 46 1017.9
20260509124656 54 308 0.0 7.0 0.00 0.06 0.00 43 1017.6
20260509122656 54 349 4.0 10.0 0.00 0.06 0.00 42 1017.6
20260509120655 55 359 4.0 10.0 0.00 0.06 0.00 42 1017.4
20260509114655 55 345 5.0 14.0 0.00 0.06 0.00 41 1017.1
20260509112656 55 342 9.0 16.0 0.00 0.06 0.00 41 1016.7
20260509110657 57 346 10.0 16.0 0.00 0.06 0.00 41 1016.4
20260509104656 57 335 8.0 16.0 0.00 0.06 0.00 40 1015.8
20260509102656 57 280 13.0 21.0 0.00 0.06 0.00 37 1015.3
20260509100656 59 270 9.0 17.0 0.00 0.06 0.00 34 1014.9
20260509094657 61 293 8.0 15.0 0.00 0.06 0.00 32 1014.4
20260509092656 61 307 11.0 19.0 0.00 0.06 0.00 30 1014.4
20260509090656 63 300 13.0 19.0 0.00 0.06 0.00 28 1014.0
20260509084655 63 288 14.0 23.0 0.00 0.06 0.00 27 1013.9
20260509082657 64 326 7.0 21.0 0.00 0.06 0.00 26 1013.7
20260509080656 64 277 10.0 22.0 0.00 0.06 0.00 24 1013.7
20260509074657 66 326 7.0 16.0 0.00 0.06 0.00 25 1013.8
20260509072655 66 294 12.0 19.0 0.00 0.06 0.00 23 1013.6
20260509070656 66 278 14.0 25.0 0.00 0.06 0.00 22 1013.2
20260509064657 68 274 11.0 18.0 0.00 0.06 0.00 20 1013.2
20260509062656 68 284 10.0 21.0 0.00 0.06 0.00 21 1013.0
20260509060656 68 329 9.0 23.0 0.00 0.06 0.00 20 1013.0
20260509054655 68 309 5.0 26.0 0.00 0.06 0.00 21 1013.0
20260509052656 68 291 13.0 23.0 0.00 0.06 0.00 20 1012.8
20260509050656 70 222 9.0 23.0 0.00 0.06 0.00 18 1012.8
20260509044656 68 274 14.0 22.0 0.00 0.06 0.00 18 1012.9
20260509042655 68 264 14.0 29.0 0.00 0.06 0.00 17 1013.0
20260509040657 68 269 9.0 27.0 0.00 0.06 0.00 21 1012.8
20260509034656 68 290 11.0 22.0 0.00 0.06 0.00 21 1012.8
20260509033009 68 273 18.0 33.0 0.00 0.06 0.00 23 1012.7
20260509032655 68 256 11.0 20.0 0.00 0.06 0.00 24 1012.7
20260509032009 68 338 14.0 27.0 0.00 0.06 0.00 25 1012.6
20260509030655 68 304 7.0 30.0 0.00 0.06 0.00 25 1012.4
20260509025008 68 280 15.0 24.0 0.00 0.06 0.00 24 1012.4
20260509024656 68 260 11.0 24.0 0.00 0.06 0.00 25 1012.4
20260509024009 68 249 7.0 22.0 0.00 0.06 0.00 23 1012.6
20260509022657 68 301 12.0 20.0 0.00 0.06 0.00 27 1012.6
20260509020656 68 333 6.0 11.0 0.00 0.06 0.00 28 1012.6
20260509014656 66 278 1.0 9.0 0.00 0.06 0.00 31 1012.7
20260509012656 66 243 2.0 11.0 0.00 0.06 0.00 35 1012.8
20260509010657 66 58 2.0 10.0 0.00 0.06 0.00 35 1012.4
20260509004657 64 131 3.0 9.0 0.00 0.06 0.00 40 1012.2
20260509002656 64 156 8.0 10.0 0.00 0.06 0.00 37 1012.0
20260509002009 64 122 3.0 9.0 0.00 0.06 0.00 41 1011.9
20260509000656 63 25 9.0 22.0 0.00 0.06 0.00 37 1011.9
20260508234656 61 83 7.0 9.0 0.00 0.06 0.00 45 1012.0
20260508232657 61 31 2.0 7.0 0.00 0.06 0.00 47 1011.8
20260508230657 59 73 8.0 13.0 0.00 0.06 0.00 50 1011.7
20260508230008 57 352 5.0 12.0 0.00 0.06 0.00 46 1011.4
20260508225008 55 68 6.0 10.0 0.00 0.06 0.00 55 1011.8
20260508224655 55 75 3.0 9.0 0.00 0.06 0.00 55 1011.8
20260508224009 55 77 7.0 9.0 0.00 0.06 0.00 57 1011.8
20260508223009 55 83 2.0 10.0 0.00 0.06 0.00 58 1011.8
20260508222656 54 58 7.0 10.0 0.00 0.06 0.00 58 1011.8
20260508221008 54 198 0.0 6.0 0.00 0.06 0.00 60 1011.9
20260508220655 54 198 1.0 8.0 0.00 0.06 0.00 59 1011.8
20260508214656 54 53 5.0 8.0 0.00 0.06 0.00 62 1011.7
20260508213009 52 75 4.0 10.0 0.00 0.06 0.00 63 1011.7
20260508212656 52 42 6.0 10.0 0.00 0.06 0.00 62 1011.6
20260508211008 52 56 6.0 9.0 0.00 0.06 0.00 62 1011.4
20260508210658 52 41 5.0 10.0 0.00 0.06 0.00 62 1011.3
20260508210008 52 24 7.0 10.0 0.00 0.06 0.00 62 1011.1
20260508204655 50 14 4.0 13.0 0.00 0.06 0.00 61 1010.6
20260508204009 50 343 8.0 17.0 0.00 0.06 0.00 64 1010.4
20260508203008 50 297 7.0 15.0 0.00 0.06 0.00 64 1010.4
20260508202656 50 245 10.0 16.0 0.00 0.06 0.00 64 1010.4
20260508202008 50 283 8.0 16.0 0.00 0.06 0.00 63 1010.3
20260508201009 52 217 8.0 17.0 0.00 0.06 0.00 62 1010.4
20260508200657 52 232 7.0 17.0 0.00 0.06 0.00 62 1010.4
20260508200010 52 264 7.0 16.0 0.00 0.06 0.00 61 1010.4
20260508195009 52 315 11.0 21.0 0.00 0.06 0.00 60 1010.3
20260508194656 52 260 10.0 21.0 0.00 0.06 0.00 60 1010.2
20260508194008 52 263 11.0 16.0 0.00 0.06 0.00 61 1010.1
20260508193008 52 219 7.0 26.0 0.00 0.06 0.00 61 1010.1
20260508192656 50 248 9.0 26.0 0.00 0.06 0.00 60 1010.1
20260508192009 52 207 5.0 14.0 0.00 0.06 0.00 61 1010.1
20260508191008 52 236 6.0 18.0 0.00 0.06 0.00 58 1010.1
20260508190656 52 252 3.0 18.0 0.00 0.06 0.00 58 1010.0
20260508190008 52 235 7.0 20.0 0.00 0.06 0.00 58 1010.2
20260508185009 52 207 9.0 19.0 0.00 0.06 0.00 57 1010.2
20260508184657 52 14 4.0 19.0 0.00 0.06 0.00 57 1010.3
20260508184009 52 250 7.0 19.0 0.00 0.06 0.00 57 1010.0
20260508183009 52 204 16.0 23.0 0.00 0.06 0.00 55 1010.0
20260508182656 52 242 10.0 20.0 0.00 0.06 0.00 54 1009.9
20260508182008 52 228 12.0 16.0 0.00 0.06 0.00 54 1009.8
20260508181008 52 201 7.0 12.0 0.00 0.06 0.00 54 1009.8
20260508180656 52 232 7.0 13.0 0.00 0.06 0.00 54 1009.8
20260508180008 50 240 8.0 14.0 0.00 0.06 0.00 54 1010.0
20260508174656 50 235 4.0 8.0 0.00 0.06 0.00 56 1010.1
20260508174009 50 346 0.0 6.0 0.00 0.06 0.00 56 1010.1
20260508173009 50 255 3.0 7.0 0.00 0.06 0.00 54 1009.9
20260508172655 52 243 3.0 9.0 0.00 0.06 0.00 52 1009.9
20260508172008 52 186 5.0 10.0 0.00 0.06 0.00 51 1009.8
20260508171008 52 193 4.0 8.0 0.00 0.06 0.00 50 1009.9
20260508170657 52 188 5.0 11.0 0.00 0.06 0.00 50 1009.9
20260508170009 50 221 3.0 11.0 0.00 0.06 0.00 51 1010.0
20260508165008 50 195 5.0 9.0 0.00 0.06 0.00 52 1009.9
20260508164657 50 269 1.0 6.0 0.00 0.06 0.00 53 1009.8
20260508163009 50 339 0.0 6.0 0.00 0.06 0.00 54 1009.8
20260508162655 50 339 1.0 6.0 0.00 0.06 0.00 54 1009.8
20260508162008 50 235 0.0 6.0 0.00 0.06 0.00 52 1009.9
20260508160656 52 290 7.0 9.0 0.00 0.06 0.00 48 1009.8
20260508154656 52 263 4.0 10.0 0.00 0.06 0.00 46 1010.2
20260508152656 54 222 11.0 18.0 0.00 0.06 0.00 43 1010.0
20260508150656 54 224 7.0 15.0 0.00 0.06 0.00 45 1010.3